Regional Weather Roundup
Issued by NWS Nashville, TN

Home | Current Version | Previous Version | Text Only | Print | Product List | Glossary On
Versions: 1 2 3 4 5 6 7 8 9 10 11 12 13 14 15 16 17 18 19 20 21 22 23 24 25 26 27
000
ASUS44 KOHX 252010
RWROHX
MIDDLE TENNESSEE HOURLY WEATHER ROUNDUP
NATIONAL WEATHER SERVICE NASHVILLE TN
300 PM CDT WED APR 25 2018

NOTE: "FAIR" INDICATES FEW OR NO CLOUDS BELOW 12,000 FEET WITH
NO SIGNIFICANT WEATHER AND/OR OBSTRUCTIONS TO VISIBILITY.

* THESE REPORTS ARE NOT UNDER NWS QUALITY CONTROL AND MAY NOT
  REPORT WEATHER SUCH AS PRECIPITATION AND FOG.


TNZ005>011-023>034-057-059-062>066-078-080-252100
...NORTHERN MIDDLE TENNESSEE...

CITY           SKY/WX    TMP DP  RH WIND       PRES   REMARKS
CLARKSVILLE      N/A     68  49  50 NW3       29.97F
CROSSVILLE     CLOUDY    54  48  80 NW7G17    29.97F
GALLATIN       MOSUNNY   68  50  52 N9        29.99F
LEBANON        PTSUNNY   68  52  56 N12       29.95F
LIVINGSTON     PTSUNNY   61  50  67 N13       29.96S
NASHVILLE      PTSUNNY   69  49  48 N13G21    29.97F
PORTLAND       PTSUNNY   66  50  55 N8        29.96F
SMYRNA           N/A     69  51  52 N14       29.97F
SPARTA         PTSUNNY   64  52  63 VRB7      29.95F
SPRINGFIELD    MOSUNNY   68  52  56 N7G13     29.96F
WEST NASHVILLE MOSUNNY   70  50  49 NW7       29.96F
$$
TNZ056-058-060-061-075>077-079-093>097-252100
...SOUTHERN MIDDLE TENNESSEE...

CITY           SKY/WX    TMP DP  RH WIND       PRES   REMARKS
COLUMBIA       MOSUNNY   72  48  43 NW7       29.95F
FAYETTEVILLE   MOSUNNY   70  50  49 N12       29.95F
LEWISBURG      MOSUNNY   70  50  49 NE9G16    29.96F
MCMINNVILLE    PTSUNNY   64  50  59 N9        29.97S
MURFREESBORO   MOSUNNY   68  48  49 N9        29.95F
PULASKI        SUNNY     72  50  46 N9        29.96F
SHELBYVILLE    PTSUNNY   68  52  56 N12       29.97F
TULLAHOMA      MOSUNNY   64  50  59 N12       29.96F
WINCHESTER     PTSUNNY   66  48  52 N12       29.96F
$$


...KEY TO REMARKS...
VSB - VISIBILITY IN MILES
WCI - WIND CHILL INDEX
HX  - HEAT INDEX





USA.gov is the U.S. government's official web portal to all federal, state and local government web resources and services.